Hourly Weather Barra

Today, 6 May, Thursday

Time Temperature Precipitation Wind Pressure Humidity
00:00 +25°C° 0 mm 2 mps 725 mmHg 70%
01:00 +25°C° 0 mm 2 mps 725 mmHg 70%
02:00 +24°C° 0 mm 2 mps 725 mmHg 71%
03:00 +24°C° 0 mm 1 mps 724 mmHg 71%
04:00 +24°C° 0 mm 1 mps 724 mmHg 70%
05:00 +24°C° 0 mm 2 mps 725 mmHg 69%
06:00 +24°C° 0 mm 2 mps 725 mmHg 68%
07:00 +26°C° 0 mm 2 mps 725 mmHg 60%
08:00 +28°C° 0 mm 2 mps 726 mmHg 53%
09:00 +30°C° 0 mm 3 mps 727 mmHg 46%
10:00 +32°C° 0 mm 2 mps 726 mmHg 42%
11:00 +34°C° 0 mm 2 mps 726 mmHg 38%
12:00 +36°C° 0 mm 2 mps 725 mmHg 33%
13:00 +36°C° 0 mm 2 mps 725 mmHg 32%
14:00 +36°C° 0 mm 2 mps 724 mmHg 31%
15:00 +35°C° 0 mm 1 mps 723 mmHg 30%
16:00 +33°C° 0.1 mm 1 mps 723 mmHg 36%
17:00 +31°C° 0.1 mm 1 mps 723 mmHg 42%
18:00 +27°C° 0.1 mm 0 mps 723 mmHg 47%
19:00 +28°C° 0.1 mm 1 mps 724 mmHg 53%
20:00 +27°C° 0.1 mm 1 mps 725 mmHg 59%
21:00 +26°C° 0.1 mm 1 mps 725 mmHg 65%
22:00 +26°C° 0 mm 1 mps 725 mmHg 66%
23:00 +26°C° 0 mm 1 mps 725 mmHg 66%

Tomorrow, 7 May, Friday

Time Temperature Precipitation Wind Pressure Humidity
00:00 +26°C° 0 mm 2 mps 725 mmHg 67%
01:00 +26°C° 0 mm 2 mps 725 mmHg 68%
02:00 +25°C° 0 mm 2 mps 725 mmHg 69%
03:00 +25°C° 0 mm 2 mps 724 mmHg 71%
04:00 +24°C° 0 mm 2 mps 725 mmHg 72%
05:00 +24°C° 0 mm 2 mps 725 mmHg 73%
06:00 +24°C° 0 mm 2 mps 725 mmHg 74%
07:00 +26°C° 0 mm 2 mps 726 mmHg 64%
08:00 +29°C° 0 mm 3 mps 726 mmHg 54%
09:00 +31°C° 0 mm 3 mps 727 mmHg 44%
10:00 +34°C° 0 mm 3 mps 727 mmHg 41%
11:00 +35°C° 0 mm 3 mps 726 mmHg 37%
12:00 +36°C° 0 mm 3 mps 726 mmHg 34%
13:00 +36°C° 0 mm 3 mps 725 mmHg 32%
14:00 +37°C° 0 mm 2 mps 724 mmHg 31%
15:00 +37°C° 0 mm 2 mps 723 mmHg 30%
16:00 +35°C° 0 mm 2 mps 723 mmHg 34%
17:00 +33°C° 0 mm 1 mps 724 mmHg 38%
18:00 +31°C° 0 mm 1 mps 724 mmHg 42%
19:00 +30°C° 0 mm 1 mps 724 mmHg 44%
20:00 +29°C° 0 mm 2 mps 725 mmHg 46%
21:00 +29°C° 0 mm 2 mps 725 mmHg 48%
22:00 +29°C° 0 mm 2 mps 725 mmHg 49%
23:00 +29°C° 0 mm 3 mps 726 mmHg 50%

Day after tomorrow, 8 May, Saturday

Time Temperature Precipitation Wind Pressure Humidity
00:00 +29°C° 0 mm 4 mps 726 mmHg 51%
01:00 +28°C° 0 mm 3 mps 726 mmHg 54%
02:00 +27°C° 0 mm 3 mps 725 mmHg 58%
03:00 +27°C° 0 mm 2 mps 725 mmHg 61%
04:00 +26°C° 0 mm 2 mps 725 mmHg 64%
05:00 +25°C° 0 mm 2 mps 726 mmHg 67%
06:00 +25°C° 0 mm 2 mps 726 mmHg 70%
07:00 +27°C° 0 mm 3 mps 726 mmHg 62%
08:00 +29°C° 0 mm 3 mps 727 mmHg 54%
09:00 +33°C° 0 mm 4 mps 728 mmHg 47%
10:00 +34°C° 0 mm 4 mps 727 mmHg 42%
11:00 +35°C° 0 mm 3 mps 727 mmHg 38%
12:00 +37°C° 0 mm 3 mps 726 mmHg 33%
13:00 +36°C° 0 mm 3 mps 726 mmHg 33%
14:00 +36°C° 0 mm 2 mps 725 mmHg 33%
15:00 +36°C° 0 mm 2 mps 724 mmHg 33%
16:00 +34°C° 0 mm 2 mps 724 mmHg 35%
17:00 +32°C° 0 mm 1 mps 724 mmHg 37%
18:00 +31°C° 0 mm 1 mps 724 mmHg 39%
19:00 +30°C° 0 mm 2 mps 725 mmHg 42%
20:00 +29°C° 0 mm 3 mps 725 mmHg 45%
21:00 +29°C° 0 mm 3 mps 726 mmHg 49%
22:00 +28°C° 0 mm 3 mps 726 mmHg 52%
23:00 +27°C° 0 mm 3 mps 726 mmHg 55%

9 May, Sunday

Time Temperature Precipitation Wind Pressure Humidity
00:00 +26°C° 0 mm 3 mps 726 mmHg 59%
01:00 +26°C° 0 mm 3 mps 726 mmHg 62%
02:00 +25°C° 0 mm 3 mps 726 mmHg 65%
03:00 +24°C° 0 mm 3 mps 726 mmHg 68%
04:00 +24°C° 0 mm 3 mps 726 mmHg 70%
05:00 +23°C° 0 mm 2 mps 726 mmHg 72%
06:00 +23°C° 0 mm 2 mps 726 mmHg 74%
07:00 +25°C° 0 mm 3 mps 727 mmHg 64%
08:00 +27°C° 0 mm 3 mps 727 mmHg 55%
09:00 +29°C° 0 mm 4 mps 728 mmHg 46%
10:00 +32°C° 0 mm 4 mps 728 mmHg 41%
11:00 +34°C° 0 mm 3 mps 727 mmHg 37%
12:00 +35°C° 0 mm 3 mps 727 mmHg 33%
13:00 +36°C° 0 mm 3 mps 726 mmHg 32%
14:00 +36°C° 0 mm 3 mps 725 mmHg 31%
15:00 +37°C° 0 mm 3 mps 724 mmHg 30%
16:00 +35°C° 0 mm 3 mps 724 mmHg 33%
17:00 +34°C° 0 mm 4 mps 724 mmHg 37%
18:00 +32°C° 0 mm 4 mps 724 mmHg 41%
19:00 +30°C° 0 mm 5 mps 725 mmHg 45%
20:00 +29°C° 0 mm 5 mps 725 mmHg 50%
21:00 +28°C° 0 mm 6 mps 726 mmHg 54%
22:00 +27°C° 0 mm 5 mps 726 mmHg 57%
23:00 +26°C° 0 mm 4 mps 726 mmHg 59%

10 May, Monday

Time Temperature Precipitation Wind Pressure Humidity
00:00 +26°C° 0 mm 3 mps 726 mmHg 62%
01:00 +25°C° 0 mm 3 mps 726 mmHg 64%
02:00 +24°C° 0 mm 3 mps 726 mmHg 67%
03:00 +24°C° 0 mm 2 mps 726 mmHg 70%
04:00 +24°C° 0 mm 2 mps 726 mmHg 71%
05:00 +24°C° 0 mm 2 mps 726 mmHg 71%
06:00 +23°C° 0 mm 2 mps 726 mmHg 72%
07:00 +25°C° 0 mm 2 mps 727 mmHg 66%
08:00 +27°C° 0 mm 3 mps 727 mmHg 59%
09:00 +28°C° 0 mm 3 mps 728 mmHg 53%
10:00 +30°C° 0 mm 3 mps 727 mmHg 47%
11:00 +33°C° 0 mm 3 mps 727 mmHg 42%
12:00 +35°C° 0 mm 3 mps 726 mmHg 36%
13:00 +35°C° 0 mm 3 mps 725 mmHg 36%
14:00 +35°C° 0 mm 3 mps 725 mmHg 36%
15:00 +35°C° 0 mm 3 mps 724 mmHg 35%
16:00 +34°C° 0 mm 4 mps 724 mmHg 39%
17:00 +33°C° 0 mm 4 mps 724 mmHg 42%
18:00 +32°C° 0 mm 5 mps 724 mmHg 45%
19:00 +29°C° 0 mm 5 mps 725 mmHg 49%
20:00 +28°C° 0 mm 5 mps 726 mmHg 53%
21:00 +27°C° 0 mm 4 mps 726 mmHg 56%
22:00 +27°C° 0 mm 4 mps 726 mmHg 57%
23:00 +27°C° 0 mm 4 mps 726 mmHg 58%

11 May, Tuesday

Time Temperature Precipitation Wind Pressure Humidity
00:00 +27°C° 0 mm 4 mps 726 mmHg 59%
01:00 +26°C° 0 mm 4 mps 726 mmHg 61%
02:00 +26°C° 0 mm 3 mps 726 mmHg 63%
03:00 +25°C° 0 mm 3 mps 725 mmHg 65%
04:00 +25°C° 0 mm 3 mps 726 mmHg 65%
05:00 +25°C° 0 mm 3 mps 726 mmHg 65%
06:00 +25°C° 0 mm 3 mps 726 mmHg 66%
07:00 +26°C° 0 mm 3 mps 727 mmHg 60%
08:00 +28°C° 0 mm 3 mps 727 mmHg 54%
09:00 +29°C° 0 mm 3 mps 727 mmHg 48%
10:00 +31°C° 0 mm 3 mps 727 mmHg 43%
11:00 +33°C° 0 mm 3 mps 726 mmHg 39%
12:00 +34°C° 0 mm 2 mps 726 mmHg 35%
13:00 +35°C° 0 mm 2 mps 725 mmHg 34%
14:00 +35°C° 0 mm 3 mps 724 mmHg 34%
15:00 +35°C° 0 mm 3 mps 724 mmHg 33%
16:00 +33°C° 0 mm 3 mps 724 mmHg 37%
17:00 +31°C° 0 mm 3 mps 724 mmHg 42%
18:00 +29°C° 0 mm 3 mps 724 mmHg 47%
19:00 +28°C° 0 mm 3 mps 724 mmHg 49%
20:00 +28°C° 0 mm 4 mps 725 mmHg 52%
21:00 +27°C° 0 mm 4 mps 725 mmHg 54%
22:00 +26°C° 0 mm 4 mps 725 mmHg 56%
23:00 +25°C° 0 mm 4 mps 725 mmHg 58%
Show more